Regional Weather Roundup
Issued by NWS Raleigh/Durham, NC

Home | Current Version | Previous Version | Text Only | Print | Product List | Glossary On
Versions: 1 2 3 4 5 6 7 8 9 10 11 12 13 14 15 16 17 18 19 20 21 22 23 24 25 26 27 28
000
ASUS42 KRAH 221110
RWRRAH
NORTH CAROLINA WEATHER ROUNDUP
NATIONAL WEATHER SERVICE RALEIGH NC
700 AM EDT TUE AUG 22 2017

NOTE: "FAIR" INDICATES FEW OR NO CLOUDS BELOW 12,000 FEET WITH NO
SIGNIFICANT WEATHER AND/OR OBSTRUCTIONS TO VISIBILITY.

NCZ001-053-055-056-065-067-221200-
WESTERN NORTH CAROLINA

CITY           SKY/WX    TMP DP  RH WIND       PRES   REMARKS
ASHEVILLE      FOG       68  67  96 CALM      30.21R VSB 1
JEFFERSON      FOG       62  62  99 CALM      30.24S VSB 1/4
MORGANTON      FOG       64  64 100 CALM      30.18R VSB<1/4
HICKORY        CLOUDY    69  69 100 CALM      30.14R
RUTHERFORDTON  CLEAR     68  68 100 CALM      30.14S FOG
MOUNT AIRY       N/A     69  65  88 CALM      30.16R FOG
BOONE          CLEAR     63  63 100 W3        30.25S
$$

NCZ021-022-025-041-071-084-088-221200-
CENTRAL NORTH CAROLINA

CITY           SKY/WX    TMP DP  RH WIND       PRES   REMARKS
CHARLOTTE      PTCLDY    73  73 100 CALM      30.13S
GREENSBORO     PTCLDY    69  69 100 S6        30.12R FOG
WINSTON-SALEM  CLEAR     70  68  93 SE3       30.14R FOG
RALEIGH-DURHAM PTCLDY    74  73  97 SW3       30.13R FOG
FORT BRAGG     CLOUDY    75  75 100 CALM      30.11S
FAYETTEVILLE   CLEAR     74  74 100 CALM      30.11R
BURLINGTON     CLEAR     68  68 100 CALM      30.12R FOG
LAURINBURG     FOG       74  74 100 CALM      30.12R VSB<1/4
$$

NCZ011-015-027-028-043-044-047-080-103-221200-
NORTHEASTERN NORTH CAROLINA

CITY           SKY/WX    TMP DP  RH WIND       PRES   REMARKS
ROCKY MT-WILSO FOG       73  73 100 CALM      30.12R VSB 1/4
GREENVILLE     CLOUDY    75  75 100 CALM      30.14R FOG
WASHINGTON     PTCLDY    74  73  98 CALM      30.13R FOG
ELIZABETH CITY CLEAR     74  74 100 S5        30.12S FOG
MANTEO         PTCLDY    78  75  90 W6        30.13R
CAPE HATTERAS  CLEAR     77  76  96 S3        30.12S
$$

NCZ078-087-090-091-093-098-101-221200-
SOUTHEASTERN NORTH CAROLINA

CITY           SKY/WX    TMP DP  RH WIND       PRES   REMARKS
LUMBERTON      FOG       72  72 100 CALM      30.11R VSB 1/4
GOLDSBORO      FOG       73  73 100 CALM      30.11S VSB 1/2
KINSTON        FOG       73  73 100 CALM      30.13R VSB 1/4
KENANSVILLE    CLOUDY    72  72 100 CALM      30.12S FOG
NEW BERN       CLEAR     73  73 100 CALM      30.13S FOG
CHERRY POINT   CLEAR     74  72  93 CALM      30.13S
BEAUFORT       CLEAR     74  74 100 NE3       30.12S
JACKSONVILLE   CLEAR     74  74 100 CALM      30.11R
WILMINGTON     CLEAR     75  74  96 CALM      30.11S
$$





USA.gov is the U.S. government's official web portal to all federal, state and local government web resources and services.